Find Starlink 30807

NORAD ID: 58192 Int'l Des: 2023-167 Owner: SPXS Country: US Constellation: starlink operational
LEOCIRCULAR

Current View

Loading 3D Globe...

About Starlink 30807

Starlink 30807 (NORAD 58192) is a starlink constellation satellite (v2 mini) launched Oct 30, 2023 by SPXS of US. It operates in LEO, CIRCULAR orbit with a mass of 730.00 kg.

Upcoming Passes

Passes for default location (London). Set your location on the main map for personalized predictions.

Altitude History

Loading altitude history...

Two-Line Element Set

1 58192U 23167T 26263.33818327 .00010359 00000-0 38530-3 0 9998
2 58192 43.0016 124.1619 0000050 68.9326 291.1531 15.27588568160750
Epoch: Sep 20, 2026 • Age: 25 hours

Current Status

Altitude 488.2 km
Apogee / Perigee N/A
Velocity 7.62 km/s
Sub-Earth Point -22.35°S, 44.14°W
Launch Date Oct 30, 2023
Age 2.8 years
Type internet

Technical Details

Classification Payload
Mass 730.00 kg
Dry Mass 700.00 kg
Length 0.30 m
Span 29.00 m
Shape ? Box + pan
Manufacturer SPXS
Bus Type Starlink V2M
Phase Status In Orbit
Owner/State SPXS/US

Most Searched